SCP
0 0 0 0 0 0 0 0 0 0 0 0 0 -0 -0 -0 0 0 0 0 0 0 0 0 0 0 0 0 0 0 0 0 0 0 0 0 0 0 0 0 0 0 0 0 0 0 0
0 0 0 0 0 0 0 0 0 0 0 0 0 0 -0 -0 -0 0 0 0 0 0 -0 -0 0 0 0 0 0 0 0 0 0 0 0 0 0 0 0 0 0 0 0 0 0 0 0
0 0 0 0 0 0 0 0 0 0 0 0 0 0 0 0 0 0 0 0 0 -0 -0 0 0 0 0 0 0 0 0 0 0 0 0 0 0 0 0 0 0 0 0 0 0 0 0
0 0 0 0 0 0 0 0 0 0 0 0 0 0 0 0 0 0 0 0 -0 0 0 0 0 0 0 0 0 -0 0 0 0 0 0 0 0 0 0 0 0 0 0 0 0 0 0
0 0 0 0 0 0 0 0 0 0 0 0 0 0 0 0 0 0 0 0 0 0 0 0 0 0 0 0 0 0 0 0 0 0 0 0 0 0 0 0 0 0 0 0 0 0 0
0 0 0 0 0 0 0 0 0 0 0 0 0 0 0 0 0 0 0 0 0 0 0 0 0 0 0 0 0 0 0 0 0 0 0 0 0 0 0 0 0 0 0 0 0 0 0
0 0 0 0 0 0 0 0 0 0 0 0 0 0 0 0 0 0 0 0 0 0 0 0 0 0 0 0 0 0 0 0 0 0 0 0 0 0 0 0 0 0 0 0 0 0 0
0 0 0 0 0 0 0 0 0 0 0 0 0 0 0 0 0 0 0 0 0 0 0 0 0 0 -0 0 0 0 0 0 0 0 0 0 0 0 0 0 0 0 0 0 0 0 0
0 0 0 0 0 0 0 0 0 0 0 0 0 0 0 0 0 0 0 0 0 0 0 0 0 0 0 0 0 0 0 0 0 0 0 0 0 0 0 0 0 0 0 0 0 0 0
0 0 0 0 0 0 0 0 0 0 0 0 0 0 0 0 0 0 0 0 0 0 0 0 0 0 0 0 0 0 0 0 0 0 0 0 0 0 0 0 0 0 0 0 0 0 0
0 0 0 0 0 0 0 0 0 0 0 0 0 0 0 0 0 0 0 0 0 0 0 0 0 0 0 0 0 0 0 0 0 0 0 0 0 0 0 0 0 0 0 0 0 0 0
0 0 0 0 0 0 0 0 0 0 0 0 0 0 0 0 0 0 0 -0 0 0 0 0 0 0 0 0 0 0 0 0 0 0 0 0 0 0 0 0 0 0 0 0 0 0 0
0 0 0 0 0 0 0 0 0 0 0 0 0 0 0 0 0 0 0 0 0 0 0 0 0 0 0 0 0 0 0 0 0 0 0 0 0 0 0 0 0 0 0 0 0 0 0
0 0 0 0 0 0 0 0 0 0 0 0 0 0 0 0 0 0 0 0 0 0 0 0 0 0 0 0 0 0 0 0 0 0 0 0 0 0 0 0 0 0 0 0 0 0 0
0 0 0 0 0 0 0 0 0 0 0 0 0 -0 0 0 0 0 0 0 0 0 0 0 0 0 0 0 0 0 0 0 0 0 0 0 0 0 0 0 0 0 0 0 0 0 0
0 0 0 0 0 0 0 0 0 0 0 0 0 -0 0 0 0 0 0 0 0 0 0 0 0 0 0 0 0 0 0 0 0 0 0 0 0 0 0 0 0 0 0 0 0 0 0
0 0 0 0 0 0 0 0 0 0 0 0 0 0 0 0 0 0 0 0 0 0 0 0 0 0 0 0 0 0 0 0 0 0 0 0 0 0 0 0 0 0 0 0 0 0 0
0 0 0 0 0 0 0 0 0 0 0 0 0 0 0 -0 0 0 0 0 0 0 0 0 0 0 0 0 0 0 0 0 0 0 0 0 0 0 0 0 0 0 0 0 0 0 0
0 0 0 0 0 0 0 0 0 0 0 0 0 0 0 0 0 0 0 0 0 0 0 0 0 0 0 0 0 0 0 0 0 0 0 0 0 0 0 0 0 0 0 0 0 0 0
0 0 0 0 0 0 0 0 0 0 0 0 0 0 0 0 0 0 0 0 0 0 0 0 0 0 0 0 0 0 0 0 0 0 0 0 0 0 0 0 0 0 0 0 0 0 0
0 0 0 0 0 0 0 0 0 0 0 0 0 0 0 0 0 0 0 0 0 0 0 0 0 0 0 0 0 0 0 0 0 0 0 0 0 0 0 0 0 0 0 0 0 0 0
0 0 0 0 0 0 0 0 0 0 0 0 0 0 0 0 0 0 0 0 0 0 0 0 0 0 0 0 0 -0 0 0 0 0 0 0 0 0 0 0 0 0 0 0 0 0 0
0 0 0 0 0 0 0 0 -0 -0 0 0 0 0 0 0 0 0 0 -0 0 0 0 0 0 0 0 0 0 0 0 0 0 0 0 0 0 0 0 0 0 0 0 0 0 0 0
0 0 0 0 0 0 0 -0 -0 0 -0 0 0 0 0 0 0 0 0 0 -0 0 0 0 0 0 0 0 0 0 0 0 0 0 0 0 0 0 0 0 0 0 0 0 0 0 0
0 0 0 0 0 0 -0 -0 0 -0 -0 -0 0 0 0 0 0 0 0 0 0 0 0 0 0 0 -0 0 0 0 0 0 0 0 0 0 0 0 0 0 0 0 0 0 0 0 0
0 0 0 0 0 0 -0 -0 0 -0 -0 -0 0 0 0 0 0 0 0 0 0 0 0 0 0 0 0 0 0 0 0 0 0 0 0 0 0 0 0 0 0 0 0 0 0 0 0
0 0 0 0 0 0 0 -0 0 -0 -0 0 0 0 0 0 0 0 0 0 0 0 0 0 0 0 0 0 0 0 0 0 0 0 0 0 0 0 0 0 0 0 0 0 0 0 0
0 0 0 0 0 0 0 0 0 -0 -0 0 0 0 0 0 -0 0 0 0 0 0 0 0 0 0 0 0 0 0 0 0 0 0 0 0 0 0 0 0 0 0 0 0 0 0 0
0 0 0 -0 -0 0 0 0 -0 -0 -0 -0 -0 0 0 0 -0 0 0 -0 0 0 0 0 0 0 0 0 0 0 0 0 0 0 0 0 0 0 0 0 0 0 0 0 0 0 0
Wind_Speed_500mb
44 44 44 46 45 46 47 49 51 44 43 41 41 43 42 43 42 43 44 44 45 50 50 51 46 39 28 19 40 26 18 3 25 38 44 34 35 17 16 15 17 12 11 16 27 23 31
44 43 45 47 47 47 48 49 50 52 43 41 42 43 43 43 43 45 47 47 50 52 58 52 42 33 22 18 20 19 18 21 20 38 45 39 24 23 10 12 20 15 23 24 16 28 25
43 43 44 43 44 48 48 49 51 57 43 43 43 43 44 44 44 47 49 50 53 55 43 37 29 23 29 45 21 17 17 26 23 32 38 37 21 18 12 13 11 7 9 11 19 12 12
40 42 44 44 48 49 50 49 53 55 46 44 44 43 43 44 45 50 52 51 54 39 25 19 16 18 23 11 35 40 14 29 35 30 24 17 33 13 6 4 3 4 2 9 8 7 1
37 41 44 46 48 50 53 55 53 50 47 45 43 43 45 46 47 51 52 50 39 28 19 7 11 16 23 14 28 28 38 33 35 30 22 13 29 12 6 4 5 2 10 10 9 3 6
40 41 43 44 49 55 57 52 46 46 46 44 43 46 46 45 47 49 50 41 20 16 3 6 6 7 19 5 5 17 38 25 28 30 20 13 11 10 7 12 14 10 7 6 9 4 10
41 43 43 45 50 53 49 45 45 46 45 44 43 43 44 45 45 46 45 11 6 6 16 22 15 21 10 10 6 12 45 41 24 20 14 17 13 22 22 19 10 8 11 18 20 14 11
43 43 46 49 48 49 48 47 47 48 46 45 46 49 48 47 45 48 20 3 6 12 25 39 45 55 51 26 10 15 39 28 20 19 13 11 23 20 17 17 15 12 11 22 21 10 15
43 44 48 49 48 49 50 51 50 49 48 47 49 49 52 54 49 31 11 20 11 19 11 17 28 25 30 38 21 24 45 26 21 22 22 20 2 23 23 17 16 17 18 19 22 2 14
46 47 49 50 52 54 55 54 54 53 51 52 54 49 53 56 33 20 36 15 15 10 9 9 12 11 24 21 13 25 44 35 9 30 17 13 19 18 13 19 22 17 24 29 26 10 11
48 52 53 54 53 55 58 58 56 56 56 54 53 47 51 50 58 40 13 12 16 2 11 9 8 12 30 30 24 26 45 30 23 18 16 15 11 24 23 29 25 19 13 19 24 19 8
59 58 58 58 56 58 60 60 59 60 62 61 59 54 51 57 57 32 29 25 3 6 16 9 14 17 19 17 13 18 33 22 14 14 7 26 6 11 12 12 25 8 7 9 9 8 13
59 60 60 60 59 61 64 63 65 63 64 64 61 63 59 59 57 20 6 20 8 12 5 14 13 18 27 23 18 18 30 32 19 17 22 19 26 24 15 13 10 14 12 7 11 11 14
61 61 61 63 63 62 60 60 61 62 64 65 67 72 74 66 52 38 29 8 22 15 17 8 8 17 24 20 27 20 29 28 22 9 7 18 12 26 19 22 14 15 13 8 11 13 10
59 59 59 58 57 56 56 56 58 59 59 60 69 72 71 56 29 46 30 22 19 18 10 8 7 10 19 20 13 30 28 34 31 32 16 11 8 3 8 6 11 10 9 4 7 4 6
61 60 60 59 58 57 56 56 56 54 51 46 66 70 43 28 19 51 18 34 20 12 1 3 15 12 20 21 23 25 27 14 18 29 27 12 4 5 2 4 13 3 17 7 6 10 16
61 60 61 60 57 55 51 52 50 48 39 39 48 28 18 27 22 21 22 22 35 33 15 7 8 7 7 11 17 7 6 4 2 15 27 18 11 5 1 12 18 7 7 4 4 4 13
59 59 57 54 50 50 51 51 48 41 32 31 20 9 21 21 10 11 22 17 15 23 22 21 11 11 13 9 8 15 25 9 15 12 21 8 9 15 11 3 4 3 12 21 15 17 3
56 56 55 53 51 48 47 46 47 39 24 34 16 20 5 17 8 14 17 24 39 31 25 8 18 10 6 10 10 5 5 8 11 6 13 13 2 13 6 7 7 9 10 10 5 4 19
55 58 55 53 48 46 43 45 41 36 20 22 12 9 10 19 22 8 10 18 34 13 6 4 4 4 7 8 10 8 11 4 7 4 13 16 4 11 15 4 5 7 17 20 21 12 18
53 55 53 51 49 47 43 42 34 33 22 13 7 8 10 8 4 15 11 12 15 14 1 5 6 4 1 7 7 1 4 5 9 9 7 5 13 11 6 10 4 4 12 16 23 23 19
48 53 53 51 49 46 43 40 35 33 21 20 8 9 8 19 20 7 9 5 9 14 6 7 8 18 8 9 15 19 13 6 4 7 5 2 8 7 5 9 12 17 20 24 25 28 25
48 51 52 52 50 47 45 38 31 23 22 15 17 26 17 12 13 11 4 7 15 10 6 11 16 9 5 17 16 18 15 15 9 6 4 3 10 8 18 3 8 20 31 33 26 22 27
43 46 48 51 50 47 35 32 34 24 26 37 32 17 7 9 11 11 12 12 10 20 8 11 29 11 6 28 28 20 13 8 5 4 4 7 9 3 3 4 17 5 7 16 22 12 13
40 41 43 47 49 46 32 32 34 30 20 23 9 9 8 8 12 17 12 4 3 15 16 15 8 10 20 7 5 5 5 3 4 6 10 2 6 7 7 9 16 14 7 6 8 7 11
46 41 40 42 43 45 40 31 32 26 24 13 17 13 13 7 3 16 10 6 3 3 4 5 0 11 3 5 2 3 4 2 8 8 6 10 5 7 6 6 8 6 2 5 4 10 17
51 46 43 42 42 41 43 40 33 28 23 25 24 16 12 8 14 11 7 7 3 7 6 8 8 3 4 3 4 4 4 1 6 14 12 11 9 20 13 7 9 7 3 6 8 5 20
46 50 51 43 39 44 37 42 38 31 26 27 24 18 17 9 26 24 18 12 11 0 1 6 6 1 2 4 3 4 3 3 3 12 12 12 14 9 9 10 16 1 7 8 10 23 21
42 46 54 47 35 41 40 36 39 33 26 24 26 22 24 26 14 22 21 23 20 11 5 1 2 2 3 4 2 3 4 1 2 5 6 7 6 9 12 5 4 4 6 15 13 23 14
Wind_Direction_500mb
337 337 339 339 338 338 337 333 329 327 325 322 324 324 325 326 325 322 318 312 308 305 301 297 294 287 282 264 253 263 252 228 184 188 184 176 172 173 196 191 169 228 239 217 240 245 234
332 329 330 331 331 330 331 330 328 330 324 321 324 325 324 325 325 324 320 315 311 308 302 294 285 271 253 244 256 237 230 205 191 180 181 186 197 194 178 193 200 205 233 256 269 247 231
330 330 329 328 329 328 329 328 325 327 332 325 326 325 324 323 323 322 320 318 316 310 305 290 272 243 244 244 240 232 202 203 195 190 190 195 201 195 172 171 234 231 265 282 227 218 230
332 331 330 329 327 326 325 322 321 325 328 325 324 324 323 322 322 322 322 322 318 314 313 298 252 212 252 245 227 223 202 194 190 193 193 197 203 201 239 296 167 255 245 269 155 199 140
332 329 326 326 328 326 321 320 321 323 325 325 326 326 325 324 322 322 321 325 317 316 309 266 182 217 269 250 238 222 213 193 179 184 172 151 178 197 182 202 203 78 236 238 289 341 127
330 327 329 330 327 324 322 323 324 325 326 327 329 329 326 323 322 320 322 323 307 312 24 140 240 231 250 248 269 212 185 183 161 163 163 176 162 183 169 189 217 195 217 223 245 106 308
332 330 330 329 328 330 331 330 328 328 325 326 324 323 320 319 322 317 321 331 343 269 236 226 247 239 267 303 219 208 189 165 139 164 182 188 185 203 194 195 216 225 250 268 265 278 296
331 327 324 325 326 330 333 329 325 324 322 321 321 322 321 318 321 317 312 321 224 298 292 269 254 250 241 244 307 206 185 168 178 186 164 169 220 202 200 196 198 207 254 266 279 269 208
322 320 319 320 321 322 323 325 325 323 321 320 320 319 320 319 319 311 291 312 241 304 263 281 231 227 232 213 221 206 178 173 181 191 193 212 129 184 183 194 207 228 239 250 249 251 241
318 315 315 314 317 318 319 318 318 319 318 318 324 320 318 320 317 298 310 233 286 296 282 244 230 227 172 158 204 195 191 181 184 206 172 225 237 223 205 218 210 248 227 240 248 237 258
319 315 312 312 313 315 315 313 312 311 313 315 316 318 315 320 303 299 298 197 339 116 294 160 169 164 167 176 143 182 191 189 200 175 184 202 210 208 220 235 201 231 217 231 227 209 208
322 320 318 313 310 310 311 311 311 312 312 312 313 313 309 312 301 313 264 228 228 223 247 192 145 171 167 203 165 138 173 193 192 183 213 230 241 203 195 202 189 142 138 106 121 167 225
320 319 317 315 311 308 310 313 312 311 311 310 308 307 301 299 280 282 292 168 199 220 317 183 177 174 186 186 180 163 179 192 192 183 214 222 230 245 242 245 196 185 183 198 202 204 240
319 320 318 318 317 315 314 314 312 310 309 311 311 309 305 294 281 248 234 207 220 219 228 295 174 172 189 169 209 167 171 190 210 169 158 204 198 208 201 219 209 193 210 220 234 232 240
323 322 322 321 319 317 316 318 318 317 313 317 320 320 315 311 275 203 176 213 204 212 227 216 153 185 206 198 187 192 193 200 201 199 206 187 223 143 194 176 180 158 205 92 126 126 266
326 324 322 320 320 320 321 321 323 324 320 328 330 329 320 334 260 182 203 224 222 221 179 178 224 199 201 192 186 192 184 196 204 195 199 185 164 186 125 135 53 233 141 163 228 230 241
327 328 327 326 326 326 324 322 322 328 328 332 334 324 322 326 170 185 213 224 239 258 272 214 239 209 211 175 184 124 339 74 159 168 202 188 215 158 161 210 205 150 179 94 152 204 247
333 333 333 332 331 329 329 332 330 332 322 333 318 291 322 142 201 210 231 233 249 268 274 243 221 214 185 168 129 142 218 5 341 161 166 163 185 206 187 94 354 201 206 204 218 208 220
336 336 335 334 333 330 331 331 332 329 319 317 298 284 305 194 230 229 245 252 247 271 271 256 208 176 192 179 159 153 115 127 4 231 151 159 218 209 204 204 168 209 189 203 159 131 210
337 336 337 337 335 332 329 327 327 328 305 310 304 305 299 209 260 311 323 264 249 252 278 128 110 67 129 110 36 129 149 121 76 89 108 123 200 192 237 131 113 186 194 198 211 210 226
337 337 337 336 331 330 327 326 324 324 284 307 258 247 273 306 334 333 291 308 307 256 72 159 119 335 48 108 53 284 234 145 78 16 74 143 204 177 147 117 130 215 191 192 220 242 238
336 333 334 333 333 329 323 323 320 321 247 274 258 261 314 299 292 312 308 252 300 268 224 224 171 156 187 152 173 194 172 184 125 72 95 73 142 154 163 204 225 252 252 249 247 249 251
336 335 337 337 334 333 326 324 318 309 274 272 268 264 279 279 304 296 321 344 325 336 340 24 137 108 236 145 142 103 94 91 102 119 119 123 145 167 252 348 276 259 243 248 241 233 238
332 332 335 336 335 333 330 326 325 304 270 277 271 303 300 279 267 291 304 322 353 331 298 53 66 44 304 128 102 88 72 70 102 127 52 136 130 126 214 119 247 6 329 263 258 243 212
326 325 329 332 335 336 323 325 336 327 300 288 281 227 308 290 322 301 313 299 37 33 6 57 58 202 192 68 82 117 81 124 201 205 202 266 131 126 194 212 309 267 202 172 215 187 172
324 314 322 324 330 335 323 310 338 330 328 309 286 284 267 285 281 328 316 3 55 71 143 162 65 173 211 82 103 122 137 170 144 113 75 171 251 214 148 226 245 28 203 210 223 254 157
321 317 313 316 321 325 332 316 313 314 323 313 282 286 263 271 282 317 306 335 33 118 125 327 296 236 342 110 120 138 165 244 206 156 152 151 182 208 195 237 269 268 204 184 225 61 144
315 319 313 307 311 312 322 321 306 300 309 308 305 283 262 253 280 280 288 321 323 237 293 148 220 111 85 111 156 146 161 92 295 140 164 164 160 177 191 209 249 119 169 232 97 124 128
309 317 321 307 302 303 317 318 318 309 293 300 310 300 296 239 269 284 292 287 278 273 292 254 90 125 99 102 121 118 118 117 244 177 78 181 177 171 199 201 68 38 82 106 129 132 124
Wind_Speed_850mb
44 44 44 46 45 46 47 49 51 44 43 41 41 43 42 43 42 43 44 44 45 50 50 51 46 39 28 19 40 26 18 3 25 38 44 34 35 17 16 15 17 12 11 16 27 23 31
44 43 45 47 47 47 48 49 50 52 43 41 42 43 43 43 43 45 47 47 50 52 58 52 42 33 22 18 20 19 18 21 20 38 45 39 24 23 10 12 20 15 23 24 16 28 25
43 43 44 43 44 48 48 49 51 57 43 43 43 43 44 44 44 47 49 50 53 55 43 37 29 23 29 45 21 17 17 26 23 32 38 37 21 18 12 13 11 7 9 11 19 12 12
40 42 44 44 48 49 50 49 53 55 46 44 44 43 43 44 45 50 52 51 54 39 25 19 16 18 23 11 35 40 14 29 35 30 24 17 33 13 6 4 3 4 2 9 8 7 1
37 41 44 46 48 50 53 55 53 50 47 45 43 43 45 46 47 51 52 50 39 28 19 7 11 16 23 14 28 28 38 33 35 30 22 13 29 12 6 4 5 2 10 10 9 3 6
40 41 43 44 49 55 57 52 46 46 46 44 43 46 46 45 47 49 50 41 20 16 3 6 6 7 19 5 5 17 38 25 28 30 20 13 11 10 7 12 14 10 7 6 9 4 10
41 43 43 45 50 53 49 45 45 46 45 44 43 43 44 45 45 46 45 11 6 6 16 22 15 21 10 10 6 12 45 41 24 20 14 17 13 22 22 19 10 8 11 18 20 14 11
43 43 46 49 48 49 48 47 47 48 46 45 46 49 48 47 45 48 20 3 6 12 25 39 45 55 51 26 10 15 39 28 20 19 13 11 23 20 17 17 15 12 11 22 21 10 15
43 44 48 49 48 49 50 51 50 49 48 47 49 49 52 54 49 31 11 20 11 19 11 17 28 25 30 38 21 24 45 26 21 22 22 20 2 23 23 17 16 17 18 19 22 2 14
46 47 49 50 52 54 55 54 54 53 51 52 54 49 53 56 33 20 36 15 15 10 9 9 12 11 24 21 13 25 44 35 9 30 17 13 19 18 13 19 22 17 24 29 26 10 11
48 52 53 54 53 55 58 58 56 56 56 54 53 47 51 50 58 40 13 12 16 2 11 9 8 12 30 30 24 26 45 30 23 18 16 15 11 24 23 29 25 19 13 19 24 19 8
59 58 58 58 56 58 60 60 59 60 62 61 59 54 51 57 57 32 29 25 3 6 16 9 14 17 19 17 13 18 33 22 14 14 7 26 6 11 12 12 25 8 7 9 9 8 13
59 60 60 60 59 61 64 63 65 63 64 64 61 63 59 59 57 20 6 20 8 12 5 14 13 18 27 23 18 18 30 32 19 17 22 19 26 24 15 13 10 14 12 7 11 11 14
61 61 61 63 63 62 60 60 61 62 64 65 67 72 74 66 52 38 29 8 22 15 17 8 8 17 24 20 27 20 29 28 22 9 7 18 12 26 19 22 14 15 13 8 11 13 10
59 59 59 58 57 56 56 56 58 59 59 60 69 72 71 56 29 46 30 22 19 18 10 8 7 10 19 20 13 30 28 34 31 32 16 11 8 3 8 6 11 10 9 4 7 4 6
61 60 60 59 58 57 56 56 56 54 51 46 66 70 43 28 19 51 18 34 20 12 1 3 15 12 20 21 23 25 27 14 18 29 27 12 4 5 2 4 13 3 17 7 6 10 16
61 60 61 60 57 55 51 52 50 48 39 39 48 28 18 27 22 21 22 22 35 33 15 7 8 7 7 11 17 7 6 4 2 15 27 18 11 5 1 12 18 7 7 4 4 4 13
59 59 57 54 50 50 51 51 48 41 32 31 20 9 21 21 10 11 22 17 15 23 22 21 11 11 13 9 8 15 25 9 15 12 21 8 9 15 11 3 4 3 12 21 15 17 3
56 56 55 53 51 48 47 46 47 39 24 34 16 20 5 17 8 14 17 24 39 31 25 8 18 10 6 10 10 5 5 8 11 6 13 13 2 13 6 7 7 9 10 10 5 4 19
55 58 55 53 48 46 43 45 41 36 20 22 12 9 10 19 22 8 10 18 34 13 6 4 4 4 7 8 10 8 11 4 7 4 13 16 4 11 15 4 5 7 17 20 21 12 18
53 55 53 51 49 47 43 42 34 33 22 13 7 8 10 8 4 15 11 12 15 14 1 5 6 4 1 7 7 1 4 5 9 9 7 5 13 11 6 10 4 4 12 16 23 23 19
48 53 53 51 49 46 43 40 35 33 21 20 8 9 8 19 20 7 9 5 9 14 6 7 8 18 8 9 15 19 13 6 4 7 5 2 8 7 5 9 12 17 20 24 25 28 25
48 51 52 52 50 47 45 38 31 23 22 15 17 26 17 12 13 11 4 7 15 10 6 11 16 9 5 17 16 18 15 15 9 6 4 3 10 8 18 3 8 20 31 33 26 22 27
43 46 48 51 50 47 35 32 34 24 26 37 32 17 7 9 11 11 12 12 10 20 8 11 29 11 6 28 28 20 13 8 5 4 4 7 9 3 3 4 17 5 7 16 22 12 13
40 41 43 47 49 46 32 32 34 30 20 23 9 9 8 8 12 17 12 4 3 15 16 15 8 10 20 7 5 5 5 3 4 6 10 2 6 7 7 9 16 14 7 6 8 7 11
46 41 40 42 43 45 40 31 32 26 24 13 17 13 13 7 3 16 10 6 3 3 4 5 0 11 3 5 2 3 4 2 8 8 6 10 5 7 6 6 8 6 2 5 4 10 17
51 46 43 42 42 41 43 40 33 28 23 25 24 16 12 8 14 11 7 7 3 7 6 8 8 3 4 3 4 4 4 1 6 14 12 11 9 20 13 7 9 7 3 6 8 5 20
46 50 51 43 39 44 37 42 38 31 26 27 24 18 17 9 26 24 18 12 11 0 1 6 6 1 2 4 3 4 3 3 3 12 12 12 14 9 9 10 16 1 7 8 10 23 21
42 46 54 47 35 41 40 36 39 33 26 24 26 22 24 26 14 22 21 23 20 11 5 1 2 2 3 4 2 3 4 1 2 5 6 7 6 9 12 5 4 4 6 15 13 23 14
Wind_Direction_850mb
337 337 339 339 338 338 337 333 329 327 325 322 324 324 325 326 325 322 318 312 308 305 301 297 294 287 282 264 253 263 252 228 184 188 184 176 172 173 196 191 169 228 239 217 240 245 234
332 329 330 331 331 330 331 330 328 330 324 321 324 325 324 325 325 324 320 315 311 308 302 294 285 271 253 244 256 237 230 205 191 180 181 186 197 194 178 193 200 205 233 256 269 247 231
330 330 329 328 329 328 329 328 325 327 332 325 326 325 324 323 323 322 320 318 316 310 305 290 272 243 244 244 240 232 202 203 195 190 190 195 201 195 172 171 234 231 265 282 227 218 230
332 331 330 329 327 326 325 322 321 325 328 325 324 324 323 322 322 322 322 322 318 314 313 298 252 212 252 245 227 223 202 194 190 193 193 197 203 201 239 296 167 255 245 269 155 199 140
332 329 326 326 328 326 321 320 321 323 325 325 326 326 325 324 322 322 321 325 317 316 309 266 182 217 269 250 238 222 213 193 179 184 172 151 178 197 182 202 203 78 236 238 289 341 127
330 327 329 330 327 324 322 323 324 325 326 327 329 329 326 323 322 320 322 323 307 312 24 140 240 231 250 248 269 212 185 183 161 163 163 176 162 183 169 189 217 195 217 223 245 106 308
332 330 330 329 328 330 331 330 328 328 325 326 324 323 320 319 322 317 321 331 343 269 236 226 247 239 267 303 219 208 189 165 139 164 182 188 185 203 194 195 216 225 250 268 265 278 296
331 327 324 325 326 330 333 329 325 324 322 321 321 322 321 318 321 317 312 321 224 298 292 269 254 250 241 244 307 206 185 168 178 186 164 169 220 202 200 196 198 207 254 266 279 269 208
322 320 319 320 321 322 323 325 325 323 321 320 320 319 320 319 319 311 291 312 241 304 263 281 231 227 232 213 221 206 178 173 181 191 193 212 129 184 183 194 207 228 239 250 249 251 241
318 315 315 314 317 318 319 318 318 319 318 318 324 320 318 320 317 298 310 233 286 296 282 244 230 227 172 158 204 195 191 181 184 206 172 225 237 223 205 218 210 248 227 240 248 237 258
319 315 312 312 313 315 315 313 312 311 313 315 316 318 315 320 303 299 298 197 339 116 294 160 169 164 167 176 143 182 191 189 200 175 184 202 210 208 220 235 201 231 217 231 227 209 208
322 320 318 313 310 310 311 311 311 312 312 312 313 313 309 312 301 313 264 228 228 223 247 192 145 171 167 203 165 138 173 193 192 183 213 230 241 203 195 202 189 142 138 106 121 167 225
320 319 317 315 311 308 310 313 312 311 311 310 308 307 301 299 280 282 292 168 199 220 317 183 177 174 186 186 180 163 179 192 192 183 214 222 230 245 242 245 196 185 183 198 202 204 240
319 320 318 318 317 315 314 314 312 310 309 311 311 309 305 294 281 248 234 207 220 219 228 295 174 172 189 169 209 167 171 190 210 169 158 204 198 208 201 219 209 193 210 220 234 232 240
323 322 322 321 319 317 316 318 318 317 313 317 320 320 315 311 275 203 176 213 204 212 227 216 153 185 206 198 187 192 193 200 201 199 206 187 223 143 194 176 180 158 205 92 126 126 266
326 324 322 320 320 320 321 321 323 324 320 328 330 329 320 334 260 182 203 224 222 221 179 178 224 199 201 192 186 192 184 196 204 195 199 185 164 186 125 135 53 233 141 163 228 230 241
327 328 327 326 326 326 324 322 322 328 328 332 334 324 322 326 170 185 213 224 239 258 272 214 239 209 211 175 184 124 339 74 159 168 202 188 215 158 161 210 205 150 179 94 152 204 247
333 333 333 332 331 329 329 332 330 332 322 333 318 291 322 142 201 210 231 233 249 268 274 243 221 214 185 168 129 142 218 5 341 161 166 163 185 206 187 94 354 201 206 204 218 208 220
336 336 335 334 333 330 331 331 332 329 319 317 298 284 305 194 230 229 245 252 247 271 271 256 208 176 192 179 159 153 115 127 4 231 151 159 218 209 204 204 168 209 189 203 159 131 210
337 336 337 337 335 332 329 327 327 328 305 310 304 305 299 209 260 311 323 264 249 252 278 128 110 67 129 110 36 129 149 121 76 89 108 123 200 192 237 131 113 186 194 198 211 210 226
337 337 337 336 331 330 327 326 324 324 284 307 258 247 273 306 334 333 291 308 307 256 72 159 119 335 48 108 53 284 234 145 78 16 74 143 204 177 147 117 130 215 191 192 220 242 238
336 333 334 333 333 329 323 323 320 321 247 274 258 261 314 299 292 312 308 252 300 268 224 224 171 156 187 152 173 194 172 184 125 72 95 73 142 154 163 204 225 252 252 249 247 249 251
336 335 337 337 334 333 326 324 318 309 274 272 268 264 279 279 304 296 321 344 325 336 340 24 137 108 236 145 142 103 94 91 102 119 119 123 145 167 252 348 276 259 243 248 241 233 238
332 332 335 336 335 333 330 326 325 304 270 277 271 303 300 279 267 291 304 322 353 331 298 53 66 44 304 128 102 88 72 70 102 127 52 136 130 126 214 119 247 6 329 263 258 243 212
326 325 329 332 335 336 323 325 336 327 300 288 281 227 308 290 322 301 313 299 37 33 6 57 58 202 192 68 82 117 81 124 201 205 202 266 131 126 194 212 309 267 202 172 215 187 172
324 314 322 324 330 335 323 310 338 330 328 309 286 284 267 285 281 328 316 3 55 71 143 162 65 173 211 82 103 122 137 170 144 113 75 171 251 214 148 226 245 28 203 210 223 254 157
321 317 313 316 321 325 332 316 313 314 323 313 282 286 263 271 282 317 306 335 33 118 125 327 296 236 342 110 120 138 165 244 206 156 152 151 182 208 195 237 269 268 204 184 225 61 144
315 319 313 307 311 312 322 321 306 300 309 308 305 283 262 253 280 280 288 321 323 237 293 148 220 111 85 111 156 146 161 92 295 140 164 164 160 177 191 209 249 119 169 232 97 124 128
309 317 321 307 302 303 317 318 318 309 293 300 310 300 296 239 269 284 292 287 278 273 292 254 90 125 99 102 121 118 118 117 244 177 78 181 177 171 199 201 68 38 82 106 129 132 124